This demonstration page uses our WeatherBlox Daily Observations layout. Learn more.

39.92423, -83.80882

Hourly Observations for October 30, 2020

Temp ( °F °C ) Dew Point ( °F °C ) Humidity (%) Winds ( mph kmh ) Pressure ( in mb ) Visibility ( mi km ) Precip ( " mm )
12:56 am 00:56 Cloudy 44 6.7 44 6.7 100 100 NW 12 19 29.91 1013 10 16.0934 0 0
1:39 am 01:39 Cloudy 45 7 45 7 100 100 NNW 13 20 29.93 1014 10 16.0934 0 0
1:56 am 01:56 Cloudy 44 6.7 44 6.7 100 100 NNW 10 17 29.93 1014 10 16.0934 0 0
2:56 am 02:56 Cloudy 43 6.1 43 6.1 100 100 NNW 14 22 29.96 1014 8 12.87472 0 0
3:56 am 03:56 Cloudy 43 6.1 43 6.1 100 100 NNW 14 22 29.98 1015 10 16.0934 0 0
4:19 am 04:19 Cloudy 43 6 43 6 100 100 NNW 15 24 30 1016 10 16.0934 0 0
4:56 am 04:56 Cloudy 42 5.6 41 5 96 96 NNW 12 19 30.01 1016 10 16.0934 0 0
5:56 am 05:56 Cloudy 41 5 39 3.9 93 93 NNW 10 17 30.04 1017 10 16.0934 0 0
6:56 am 06:56 Cloudy 41 5 39 3.9 93 93 NNW 15 24 30.07 1018 10 16.0934 0 0
7:51 am 07:51 Cloudy 39 4 37 3 93 93 NNW 10 17 30.12 1020 10 16.0934 0 0
7:56 am 07:56 Cloudy 40 4.4 37 2.8 89 89 NNW 9 15 30.1 1019 10 16.0934 0 0
8:48 am 08:48 Mostly Cloudy 39 4 37 3 93 93 NW 9 15 30.16 1021 10 16.0934 0 0
8:56 am 08:56 Mostly Cloudy 39 3.9 37 2.8 93 93 NW 9 15 30.15 1021 10 16.0934 0 0
9:09 am 09:09 Cloudy 41 5 37 3 87 87 NNW 8 13 30.17 1022 10 16.0934 0 0
9:56 am 09:56 Cloudy 40 4.4 36 2.2 86 86 NNW 8 13 30.18 1022 10 16.0934 0 0
10:51 am 10:51 Cloudy 41 5 37 3 87 87 NNW 8 13 30.21 1023 10 16.0934 0 0
10:56 am 10:56 Cloudy with Light Rain 41 5 37 2.8 86 86 NNW 9 15 30.21 1023 10 16.0934 0.001 0.001
11:56 am 11:56 Cloudy 41 5 38 3.3 89 89 NNW 10 17 30.24 1024 10 16.0934 0.001 0.001
12:31 pm 12:31 Cloudy with Light Rain 41 5 37 3 87 87 NW 10 17 30.25 1024 10 16.0934 0.001 0.001
12:56 pm 12:56 Cloudy with Rain 40 4.4 38 3.3 93 93 NNW 9 15 30.26 1025 9 14.48406 0.001 0.001
1:18 pm 13:18 Cloudy 43 6 39 4 87 87 NNW 8 13 30.26 1025 10 16.0934 0.01 0.254
1:56 pm 13:56 Cloudy 44 6.7 37 2.8 76 76 NNW 12 19 30.25 1024 10 16.0934 0.01 0.254
2:11 pm 14:11 Cloudy 45 7 36 2 71 71 NW 8 13 30.24 1024 10 16.0934 0 0
2:56 pm 14:56 Cloudy 44 6.7 33 0.6 65 65 NW 10 17 30.25 1025 10 16.0934 0 0
3:56 pm 15:56 Cloudy 44 6.7 31 -0.6 60 60 NW 12 19 30.26 1025 10 16.0934 0 0
4:56 pm 16:56 Cloudy 44 6.7 31 -0.6 60 60 NW 6 9 30.27 1025 10 16.0934 0 0
5:56 pm 17:56 Cloudy 44 6.7 31 -0.6 60 60 NNW 8 13 30.29 1026 10 16.0934 0 0
6:56 pm 18:56 Cloudy 41 5 33 0.6 73 73 N 3 6 30.31 1026 10 16.0934 0 0
7:56 pm 19:56 Mostly Cloudy 37 2.8 33 0.6 86 86 NE 5 7 30.33 1027 10 16.0934 0 0
8:56 pm 20:56 Cloudy 39 3.9 36 2.2 89 89 Calm 30.35 1028 10 16.0934 0 0
9:56 pm 21:56 Cloudy 38 3.3 33 0.6 83 83 Calm 30.36 1028 10 16.0934 0 0
10:56 pm 22:56 Cloudy 38 3.3 35 1.7 89 89 ESE 5 7 30.37 1028 10 16.0934 0 0
11:56 pm 23:56 Cloudy 36 2.2 34 1.1 93 93 ESE 5 7 30.38 1029 10 16.0934 0 0

Powered by AerisWeather